H1 CPF 2 NER 2020 11 17 9 322 01 glonass136 H2 1603201 9136 41554 2020 11 17 0 0 0 2020 11 20 23 45 0 900 1 1 0 0 0 1 H9 10 0 59170 0.00000 0 -16961672.957 -14547325.454 12363383.561 10 0 59170 900.00000 0 -15456315.976 -13798519.012 14928806.395 10 0 59170 1800.00000 0 -13620206.192 -13061240.293 17205245.729 10 0 59170 2700.00000 0 -11485984.933 -12387929.772 19148624.339 10 0 59170 3600.00000 0 -9097276.446 -11825035.694 20721284.882 10 0 59170 4500.00000 0 -6507117.997 -11410975.032 21892713.169 10 0 59170 5400.00000 0 -3776004.989 -11174446.224 22640127.023 10 0 59170 6300.00000 0 -969630.071 -11133164.318 22948919.825 10 0 59170 7200.00000 0 1843591.948 -11293071.697 22812950.240 10 0 59170 8100.00000 0 4595112.808 -11648058.062 22234672.239 10 0 59170 9000.00000 0 7218847.646 -12180202.523 21225102.103 10 0 59170 9900.00000 0 9653673.570 -12860528.984 19803621.892 10 0 59170 10800.00000 0 11845727.321 -13650244.766 17997621.712 10 0 59170 11700.00000 0 13750407.014 -14502412.017 15841986.051 10 0 59170 12600.00000 0 15333994.633 -15363983.075 13378432.505 10 0 59170 13500.00000 0 16574831.329 -16178115.151 10654714.231 10 0 59170 14400.00000 0 17463995.879 -16886667.318 7723700.368 10 0 59170 15300.00000 0 18005457.217 -17432774.393 4642351.638 10 0 59170 16200.00000 0 18215694.175 -17763388.330 1470610.764 10 0 59170 17100.00000 0 18122798.169 -17831678.450 -1729770.429 10 0 59170 18000.00000 0 17765096.705 -17599187.345 -4896443.519 10 0 59170 18900.00000 0 17189356.324 -17037649.301 -7967690.824 10 0 59170 19800.00000 0 16448641.840 -16130392.300 -10883642.210 10 0 59170 20700.00000 0 15599923.590 -14873262.442 -13587456.032 10 0 59170 21600.00000 0 14701535.403 -13275030.061 -16026439.714 10 0 59170 22500.00000 0 13810592.286 -11357259.079 -18153086.882 10 0 59170 23400.00000 0 12980478.463 -9153644.257 -19926009.800 10 0 59170 24300.00000 0 12258513.053 -6708843.702 -21310748.455 10 0 59170 25200.00000 0 11683892.744 -4076855.441 -22280440.383 10 0 59170 26100.00000 0 11285998.597 -1319006.215 -22816338.442 10 0 59170 27000.00000 0 11083138.208 1498363.245 -22908167.058 10 0 59170 27900.00000 0 11081775.612 4306419.692 -22554310.860 10 0 59170 28800.00000 0 11276280.394 7036460.366 -21761832.977 10 0 59170 29700.00000 0 11649205.318 9622528.544 -20546323.697 10 0 59170 30600.00000 0 12172079.431 12003913.361 -18931583.392 10 0 59170 31500.00000 0 12806681.873 14127430.714 -16949146.788 10 0 59170 32400.00000 0 13506741.520 15949391.669 -14637658.615 10 0 59170 33300.00000 0 14219989.838 17437178.044 -12042113.376 10 0 59170 34200.00000 0 14890479.691 18570361.377 -9212974.564 10 0 59170 35100.00000 0 15461071.958 19341320.737 -6205190.777 10 0 59170 36000.00000 0 15875984.982 19755335.771 -3077128.053 10 0 59170 36900.00000 0 16083299.530 19830153.175 110560.695 10 0 59170 37800.00000 0 16037314.055 19595046.696 3296107.312 10 0 59170 38700.00000 0 15700651.447 19089411.690 6417818.627 10 0 59170 39600.00000 0 15046029.110 18360954.322 9415262.588 10 0 59170 40500.00000 0 14057618.248 17463552.162 12230427.950 10 0 59170 41400.00000 0 12731935.373 16454876.148 14808835.951 10 0 59170 42300.00000 0 11078228.478 15393873.497 17100583.312 10 0 59170 43200.00000 0 9118341.065 14338216.580 19061297.530 10 0 59170 44100.00000 0 6886058.620 13341823.852 20652987.074 10 0 59170 45000.00000 0 4425963.348 12452555.859 21844771.000 10 0 59170 45900.00000 0 1791842.976 11710181.927 22613474.715 10 0 59170 46800.00000 0 -955282.405 11144702.021 22944080.898 10 0 59170 47700.00000 0 -3749435.712 10775093.713 22830026.961 10 0 59170 48600.00000 0 -6522168.267 10608536.801 22273343.009 10 0 59170 49500.00000 0 -9205154.257 10640148.517 21284626.901 10 0 59170 50400.00000 0 -11732788.170 10853241.356 19882855.718 10 0 59170 51300.00000 0 -14044678.667 11220093.827 18095035.879 10 0 59170 52200.00000 0 -16087936.035 11703203.087 15955696.982 10 0 59170 53100.00000 0 -17819158.076 12256968.008 13506237.587 10 0 59170 54000.00000 0 -19206031.486 12829732.860 10794134.102 10 0 59170 54900.00000 0 -20228481.218 13366106.041 7872026.863 10 0 59170 55800.00000 0 -20879318.895 13809456.094 4796700.486 10 0 59170 56700.00000 0 -21164362.343 14104479.014 1627977.984 10 0 59170 57600.00000 0 -21102020.623 14199727.242 -1572449.556 10 0 59170 58500.00000 0 -20722361.704 14049991.724 -4742234.135 10 0 59170 59400.00000 0 -20065702.238 13618434.357 -7819598.066 10 0 59170 60300.00000 0 -19180779.494 12878378.418 -10744551.951 10 0 59170 61200.00000 0 -18122583.584 11814679.226 -13460078.000 10 0 59170 62100.00000 0 -16949942.849 10424615.162 -15913254.167 10 0 59170 63000.00000 0 -15722965.755 8718259.825 -18056295.923 10 0 59170 63900.00000 0 -14500448.716 6718318.447 -19847494.315 10 0 59170 64800.00000 0 -13337360.447 4459434.639 -21252031.510 10 0 59170 65700.00000 0 -12282509.731 1986996.080 -22242657.813 10 0 59170 66600.00000 0 -11376495.329 -644510.829 -22800217.145 10 0 59170 67500.00000 0 -10650024.213 -3373528.474 -22914011.403 10 0 59170 68400.00000 0 -10122668.275 -6133752.887 -22581997.394 10 0 59170 69300.00000 0 -9802110.762 -8856658.813 -21810813.506 10 0 59170 70200.00000 0 -9683912.676 -11474119.836 -20615636.607 10 0 59170 71100.00000 0 -9751807.301 -13921014.807 -19019872.970 10 0 59170 72000.00000 0 -9978508.728 -16137712.595 -17054690.119 10 0 59170 72900.00000 0 -10326998.664 -18072332.716 -14758399.526 10 0 59170 73800.00000 0 -10752235.812 -19682688.992 -12175702.738 10 0 59170 74700.00000 0 -11203214.573 -20937836.730 -9356816.170 10 0 59170 75600.00000 0 -11625285.388 -21819160.748 -6356491.889 10 0 59170 76500.00000 0 -11962638.317 -22320960.723 -3232953.631 10 0 59170 77400.00000 0 -12160844.885 -22450511.340 -46768.836 10 0 59170 78300.00000 0 -12169351.073 -22227596.545 3140321.465 10 0 59170 79200.00000 0 -11943816.587 -21683539.039 6266592.512 10 0 59170 80100.00000 0 -11448202.237 -20859766.891 9271522.684 10 0 59170 81000.00000 0 -10656517.857 -19805978.217 12096955.025 10 0 59170 81900.00000 0 -9554157.444 -18577981.169 14688211.795 10 0 59170 82800.00000 0 -8138765.387 -17235299.677 16995141.330 10 0 59170 83700.00000 0 -6420596.987 -15838644.716 18973078.087 10 0 59170 84600.00000 0 -4422357.214 -14447356.101 20583698.414 10 0 59170 85500.00000 0 -2178523.146 -13116920.851 21795756.427 10 0 59171 0.00000 0 265823.457 -11896670.784 22585686.649 10 0 59171 900.00000 0 2856607.341 -10827754.820 22938062.313 10 0 59171 1800.00000 0 5532749.152 -9941469.298 22845900.501 10 0 59171 2700.00000 0 8228453.913 -9258017.104 22310808.052 10 0 59171 3600.00000 0 10875705.038 -8785745.807 21342964.693 10 0 59171 4500.00000 0 13406862.513 -8520898.342 19960942.494 10 0 59171 5400.00000 0 15757258.797 -8447886.791 18191363.801 10 0 59171 6300.00000 0 17867685.528 -8540078.860 16068402.573 10 0 59171 7200.00000 0 19686667.789 -8761064.982 13633137.186 10 0 59171 8100.00000 0 21172431.030 -9066353.597 10932765.698 10 0 59171 9000.00000 0 22294477.902 -9405423.767 8019697.586 10 0 59171 9900.00000 0 23034708.065 -9724048.672 4950538.848 10 0 59171 10800.00000 0 23388033.028 -9966791.433 1784989.870 10 0 59171 11700.00000 0 23362459.314 -10079566.815 -1415322.262 10 0 59171 12600.00000 0 22978635.716 -10012158.983 -4588053.445 10 0 59171 13500.00000 0 22268883.445 -9720586.895 -7671369.570 10 0 59171 14400.00000 0 21275750.158 -9169215.087 -10605165.514 10 0 59171 15300.00000 0 20050149.450 -8332518.394 -13332250.731 10 0 59171 16200.00000 0 18649165.258 -7196423.897 -15799476.865 10 0 59171 17100.00000 0 17133614.968 -5759171.564 -17958784.097 10 0 59171 18000.00000 0 15565475.308 -4031655.826 -19768144.789 10 0 59171 18900.00000 0 14005280.649 -2037232.599 -21192385.470 10 0 59171 19800.00000 0 12509604.201 189000.861 -22203870.995 10 0 59171 20700.00000 0 11128728.594 2601423.325 -22783037.726 10 0 59171 21600.00000 0 9904603.795 5145553.295 -22918765.965 10 0 59171 22500.00000 0 8869177.603 7760089.421 -22608585.201 10 0 59171 23400.00000 0 8043167.821 10379242.197 -21858709.128 10 0 59171 24300.00000 0 7435326.145 12935259.667 -20683900.813 10 0 59171 25200.00000 0 7042222.835 15361041.975 -19107171.604 10 0 59171 26100.00000 0 6848559.219 17592736.089 -17159320.586 10 0 59171 27000.00000 0 6827992.820 19572203.265 -14878324.329 10 0 59171 27900.00000 0 6944438.397 21249257.367 -12308589.398 10 0 59171 28800.00000 0 7153788.476 22583581.854 -9500082.738 10 0 59171 29700.00000 0 7405979.429 23546246.950 -6507357.172 10 0 59171 30600.00000 0 7647314.993 24120765.281 -3388491.143 10 0 59171 31500.00000 0 7822948.622 24303643.499 -203963.448 10 0 59171 32400.00000 0 7879419.681 24104408.537 2984515.281 10 0 59171 33300.00000 0 7767136.518 23545108.874 6115191.965 10 0 59171 34200.00000 0 7442701.989 22659312.906 9127458.585 10 0 59171 35100.00000 0 6870983.716 21490647.248 11963015.484 10 0 59171 36000.00000 0 6026842.193 20090936.576 14566988.727 10 0 59171 36900.00000 0 4896444.147 18518022.830 16888980.797 10 0 59171 37800.00000 0 3478105.742 16833354.588 18884035.377 10 0 59171 38700.00000 0 1782629.573 15099446.493 20513498.685 10 0 59171 39600.00000 0 -166879.776 13377313.858 21745761.614 10 0 59171 40500.00000 0 -2335715.528 11723988.298 22556869.235 10 0 59171 41400.00000 0 -4678756.750 10190216.847 22930986.402 10 0 59171 42300.00000 0 -7142097.399 8818439.559 22860710.597 10 0 59171 43200.00000 0 -9665051.060 7641129.152 22347225.743 10 0 59171 44100.00000 0 -12182450.474 6679561.550 21400293.301 10 0 59171 45000.00000 0 -14627148.318 5943068.665 20038079.710 10 0 59171 45900.00000 0 -16932617.049 5428804.910 18286822.125 10 0 59171 46800.00000 0 -19035540.887 5122037.771 16180337.247 10 0 59171 47700.00000 0 -20878292.472 4996950.973 13759381.179 10 0 59171 48600.00000 0 -22411191.004 5017927.162 11070871.167 10 0 59171 49500.00000 0 -23594446.964 5141256.618 8166983.060 10 0 59171 50400.00000 0 -24399710.991 5317200.137 5104141.239 10 0 59171 51300.00000 0 -24811160.917 5492318.746 1941920.331 10 0 59171 52200.00000 0 -24826080.003 5611970.946 -1258119.762 10 0 59171 53100.00000 0 -24454901.022 5622870.604 -4433642.040 10 0 59171 54000.00000 0 -23720713.590 5475595.482 -7522759.130 10 0 59171 54900.00000 0 -22658255.099 5126938.178 -10465253.273 10 0 59171 55800.00000 0 -21312427.963 4541997.788 -13203764.134 10 0 59171 56700.00000 0 -19736406.205 3695921.670 -15684919.814 10 0 59171 57600.00000 0 -17989412.089 2575221.698 -17860387.705 10 0 59171 58500.00000 0 -16134257.537 1178607.790 -19687823.625 10 0 59171 59400.00000 0 -14234754.943 -482697.704 -21131700.177 10 0 59171 60300.00000 0 -12353107.129 -2385178.930 -22163997.999 10 0 59171 61200.00000 0 -10547386.794 -4493770.008 -22764746.627 10 0 59171 62100.00000 0 -8869211.364 -6763092.104 -22922404.997 10 0 59171 63000.00000 0 -7361710.384 -9139132.304 -22634075.023 10 0 59171 63900.00000 0 -6057869.793 -11561293.826 -21905545.009 10 0 59171 64800.00000 0 -4979321.023 -13964731.834 -20751163.118 10 0 59171 65700.00000 0 -4135623.806 -16282877.290 -19193544.335 10 0 59171 66600.00000 0 -3524070.641 -18450043.590 -17263117.580 10 0 59171 67500.00000 0 -3130018.812 -20404007.616 -14997522.566 10 0 59171 68400.00000 0 -2927733.690 -22088458.147 -12440868.765 10 0 59171 69300.00000 0 -2881705.753 -23455210.265 -9642871.444 10 0 59171 70200.00000 0 -2948384.037 -24466094.401 -6657881.932 10 0 59171 71100.00000 0 -3078251.484 -25094442.452 -3543831.128 10 0 59171 72000.00000 0 -3218153.681 -25326110.155 -361106.947 10 0 59171 72900.00000 0 -3313782.108 -25159994.428 2828612.593 10 0 59171 73800.00000 0 -3312206.886 -24608025.360 5963548.290 10 0 59171 74700.00000 0 -3164352.269 -23694634.268 8983007.917 10 0 59171 75600.00000 0 -2827310.732 -22455720.925 11828551.287 10 0 59171 76500.00000 0 -2266398.459 -20937163.601 14445110.414 10 0 59171 77400.00000 0 -1456865.954 -19192934.205 16782044.013 10 0 59171 78300.00000 0 -385191.837 -17282896.907 18794106.979 10 0 59171 79200.00000 0 950094.900 -15270381.282 20442317.238 10 0 59171 80100.00000 0 2538099.415 -13219630.153 21694704.112 10 0 59171 81000.00000 0 4355766.862 -11193227.198 22526924.644 10 0 59171 81900.00000 0 6368602.779 -9249610.063 22922736.513 10 0 59171 82800.00000 0 8531880.018 -7440771.339 22874318.544 10 0 59171 83700.00000 0 10792284.359 -5810242.017 22382432.413 10 0 59171 84600.00000 0 13089932.716 -4391440.629 21456421.745 10 0 59171 85500.00000 0 15360682.120 -3206456.520 20114047.509 10 0 59172 0.00000 0 17538635.339 -2265317.905 18381161.594 10 0 59172 900.00000 0 19558740.224 -1565775.672 16291222.925 10 0 59172 1800.00000 0 21359375.333 -1093611.952 13884664.627 10 0 59172 2700.00000 0 22884813.623 -823461.959 11208121.968 10 0 59172 3600.00000 0 24087461.724 -720113.830 8313535.581 10 0 59172 4500.00000 0 24929779.254 -740232.828 5257146.229 10 0 59172 5400.00000 0 25385796.795 -834436.541 2098400.354 10 0 59172 6300.00000 0 25442167.245 -949632.893 -1101212.156 10 0 59172 7200.00000 0 25098705.046 -1031521.063 -4279364.517 10 0 59172 8100.00000 0 24368389.293 -1027147.857 -7374119.399 10 0 59172 9000.00000 0 23276829.791 -887409.439 -10325149.776 10 0 59172 9900.00000 0 21861218.209 -569390.414 -13074928.836 10 0 59172 10800.00000 0 20168808.597 -38439.128 -15569864.305 10 0 59172 11700.00000 0 18254991.752 730110.605 -17761353.734 10 0 59172 12600.00000 0 16181045.289 1749645.844 -19606739.092 10 0 59172 13500.00000 0 14011654.944 3021464.934 -21070141.466 10 0 59172 14400.00000 0 11812312.090 4534487.141 -22123159.390 10 0 59172 15300.00000 0 9646697.363 6265494.299 -22745417.351 10 0 59172 16200.00000 0 7574160.367 8179894.617 -22924954.349 10 0 59172 17100.00000 0 5647400.777 10232976.599 -22658445.753 10 0 59172 18000.00000 0 3910447.256 12371600.321 -21951255.078 10 0 59172 18900.00000 0 2397017.452 14536255.062 -20817315.730 10 0 59172 19800.00000 0 1129325.926 16663397.040 -19278846.005 10 0 59172 20700.00000 0 117387.840 18687969.388 -17365903.856 10 0 59172 21600.00000 0 -641154.876 20545999.197 -15115790.877 10 0 59172 22500.00000 0 -1160680.060 22177163.433 -12572317.729 10 0 59172 23400.00000 0 -1466721.830 23527216.991 -9784945.883 10 0 59172 24300.00000 0 -1594635.575 24550182.196 -6807822.668 10 0 59172 25200.00000 0 -1587849.516 25210209.168 -3698728.629 10 0 59172 26100.00000 0 -1495777.928 25483030.286 -517957.747 10 0 59172 27000.00000 0 -1371485.021 25356949.076 2672847.790 10 0 59172 27900.00000 0 -1269198.578 24833323.230 5811885.935 10 0 59172 28800.00000 0 -1241778.364 23926522.506 8838383.529 10 0 59172 29700.00000 0 -1338245.970 22663363.989 11693763.028 10 0 59172 30600.00000 0 -1601479.885 21082048.690 14322765.432 10 0 59172 31500.00000 0 -2066172.524 19230643.941 16674508.520 10 0 59172 32400.00000 0 -2757134.958 17165174.500 18703461.017 10 0 59172 33300.00000 0 -3688020.656 14947401.159 20370314.920 10 0 59172 34200.00000 0 -4860522.207 12642378.296 21642740.081 10 0 59172 35100.00000 0 -6264075.625 10315890.647 22496007.328 10 0 59172 36000.00000 0 -7876086.004 8031874.406 22913468.640 10 0 59172 36900.00000 0 -9662666.923 5849928.450 22886885.285 10 0 59172 37800.00000 0 -11579864.856 3823017.825 22416597.373 10 0 59172 38700.00000 0 -13575319.924 1995463.878 21511530.887 10 0 59172 39600.00000 0 -15590295.907 401304.020 20189041.016 10 0 59172 40500.00000 0 -17561997.018 -936910.963 18474593.435 10 0 59172 41400.00000 0 -19426076.395 -2008831.932 16401288.086 10 0 59172 42300.00000 0 -21119232.688 -2816508.601 14009233.097 10 0 59172 43200.00000 0 -22581786.719 -3374060.348 11344779.418 10 0 59172 44100.00000 0 -23760130.147 -3706834.063 8459629.733 10 0 59172 45000.00000 0 -24608942.737 -3850084.213 5409838.132 10 0 59172 45900.00000 0 -25093083.857 -3847230.823 2254719.599 10 0 59172 46800.00000 0 -25189077.236 -3747769.359 -944309.359 10 0 59172 47700.00000 0 -24886124.823 -3604921.732 -4124935.621 10 0 59172 48600.00000 0 -24186605.542 -3473129.120 -7225175.351 10 0 59172 49500.00000 0 -23106036.658 -3405494.434 -10184595.649 10 0 59172 50400.00000 0 -21672498.452 -3451284.679 -12945506.517 10 0 59172 51300.00000 0 -19925546.107 -3653600.987 -15454098.401 10 0 59172 52200.00000 0 -17914654.617 -4047316.902 -17661501.835 10 0 59172 53100.00000 0 -15697262.601 -4657373.845 -19524747.377 10 0 59172 54000.00000 0 -13336497.882 -5497507.220 -21007606.563 10 0 59172 54900.00000 0 -10898681.008 -6569457.953 -22081297.237 10 0 59172 55800.00000 0 -8450712.054 -7862703.343 -22725039.653 10 0 59172 56700.00000 0 -6057450.502 -9354718.792 -22926453.084 10 0 59172 57600.00000 0 -3779197.741 -11011759.437 -22681785.996 10 0 59172 58500.00000 0 -1669386.978 -12790128.552 -21995976.239 10 0 59172 59400.00000 0 227423.955 -14637879.193 -20882541.146 10 0 59172 60300.00000 0 1877174.636 -16496877.421 -19363300.645 10 0 59172 61200.00000 0 3257473.026 -18305140.320 -17467939.752 10 0 59172 62100.00000 0 4358268.792 -19999350.825 -15233419.747 10 0 59172 63000.00000 0 5182003.319 -21517444.103 -12703250.134 10 0 59172 63900.00000 0 5743232.656 -22801157.452 -9926636.125 10 0 59172 64800.00000 0 6067741.715 -23798437.451 -6957518.545 10 0 59172 65700.00000 0 6191189.142 -24465604.247 -3853525.055 10 0 59172 66600.00000 0 6157341.676 -24769183.110 -674853.198 10 0 59172 67500.00000 0 6015973.779 -24687327.479 2516893.120 10 0 59172 68400.00000 0 5820521.922 -24210774.752 5659891.398 10 0 59172 69300.00000 0 5625592.878 -23343295.607 8693289.838 10 0 59172 70200.00000 0 5484431.107 -22101618.620 11558375.723 10 0 59172 71100.00000 0 5446451.757 -20514833.617 14199701.082 10 0 59172 72000.00000 0 5554942.772 -18623298.631 16566144.650 10 0 59172 72900.00000 0 5845032.411 -16477095.633 18611890.665 10 0 59172 73800.00000 0 6342007.412 -14134098.518 20297306.672 10 0 59172 74700.00000 0 7060052.435 -11657732.651 21589704.278 10 0 59172 75600.00000 0 8001464.146 -9114517.656 22463969.056 10 0 59172 76500.00000 0 9156373.783 -6571493.921 22903047.991 10 0 59172 77400.00000 0 10502991.200 -4093638.105 22898285.246 10 0 59172 78300.00000 0 12008361.982 -1741373.385 22449599.572 10 0 59172 79200.00000 0 13629608.090 431723.489 21565499.314 10 0 59172 80100.00000 0 15315602.336 2380924.008 20262933.665 10 0 59172 81000.00000 0 17009008.850 4071975.941 18566981.724 10 0 59172 81900.00000 0 18648606.052 5482290.117 16510383.745 10 0 59172 82800.00000 0 20171796.270 6601636.279 14132922.079 10 0 59172 83700.00000 0 21517197.617 7432318.707 11480662.236 10 0 59172 84600.00000 0 22627209.784 7988823.955 8605067.539 10 0 59172 85500.00000 0 23450445.274 8296955.115 5562003.701 10 0 59173 0.00000 0 23943922.828 8392489.035 2410652.285 10 0 59173 900.00000 0 24074928.979 8319413.434 -787646.074 10 0 59173 1800.00000 0 23822468.621 8127818.817 -3970594.448 10 0 59173 2700.00000 0 23178239.822 7871535.740 -7076165.247 10 0 59173 3600.00000 0 22147092.120 7605618.525 -10043822.540 10 0 59173 4500.00000 0 20746946.281 7383783.925 -12815715.966 10 0 59173 5400.00000 0 19008178.650 7255914.990 -15337821.436 10 0 59173 6300.00000 0 16972495.361 7265737.707 -17561005.057 10 0 59173 7200.00000 0 14691343.841 7448770.392 -19441988.407 10 0 59173 8100.00000 0 12223928.632 7830633.952 -20944195.711 10 0 59173 9000.00000 0 9634915.246 8425795.421 -22038466.161 10 0 59173 9900.00000 0 6991918.903 9236798.369 -22703617.604 10 0 59173 10800.00000 0 4362883.568 10254012.850 -22926851.154 10 0 59173 11700.00000 0 1813460.932 11455915.292 -22703989.636 10 0 59173 12600.00000 0 -595501.403 12809886.128 -22039546.129 10 0 59173 13500.00000 0 -2810258.536 14273491.150 -20946622.359 10 0 59173 14400.00000 0 -4786159.012 15796192.172 -19446639.894 10 0 59173 15300.00000 0 -6489246.314 17321414.655 -17568910.338 10 0 59173 16200.00000 0 -7897406.345 18788885.141 -15350053.714 10 0 59173 17100.00000 0 -9001015.420 20137140.236 -12833276.982 10 0 59173 18000.00000 0 -9803064.109 21306101.833 -10067527.296 10 0 59173 18900.00000 0 -10318754.343 22239610.812 -7106536.831 10 0 59173 19800.00000 0 -10574589.087 22887813.307 -4007777.921 10 0 59173 20700.00000 0 -10606994.865 23209300.023 -831348.984 10 0 59173 21600.00000 0 -10460536.799 23172909.527 2361187.227 10 0 59173 22500.00000 0 -10185802.512 22759120.607 5507990.756 10 0 59173 23400.00000 0 -9837044.757 21960975.934 8548134.222 10 0 59173 24300.00000 0 -9469682.357 20784498.816 11422772.825 10 0 59173 25200.00000 0 -9137764.620 19248585.773 14076272.669 10 0 59173 26100.00000 0 -8891505.597 17384379.316 16457276.395 10 0 59173 27000.00000 0 -8774991.438 15234146.589 18519686.581 10 0 59173 27900.00000 0 -8824156.724 12849709.693 20223548.959 10 0 59173 28800.00000 0 -9065114.453 10290491.808 21535819.301 10 0 59173 29700.00000 0 -9512909.769 7621258.794 22431000.068 10 0 59173 30600.00000 0 -10170750.081 4909648.279 22891635.067 10 0 59173 31500.00000 0 -11029744.685 2223587.042 22908652.791 10 0 59173 32400.00000 0 -12069166.090 -371297.930 22481551.642 10 0 59173 33300.00000 0 -13257223.810 -2814168.881 21618422.846 10 0 59173 34200.00000 0 -14552320.122 -5051265.030 20335809.617 10 0 59173 35100.00000 0 -15904737.190 -7037894.487 18658403.944 10 0 59173 36000.00000 0 -17258686.744 -8740047.938 16618585.322 10 0 59173 36900.00000 0 -18554637.846 -10135566.893 14255808.719 10 0 59173 37800.00000 0 -19731826.147 -11214817.582 11615852.156 10 0 59173 38700.00000 0 -20730839.632 -11980841.954 8749937.130 10 0 59173 39600.00000 0 -21496171.765 -12448979.024 5713738.127 10 0 59173 40500.00000 0 -21978633.827 -12645972.310 2566300.052 10 0 59173 41400.00000 0 -22137523.242 -12608600.968 -631115.351 10 0 59173 42300.00000 0 -21942454.784 -12381892.776 -3816230.895 10 0 59173 43200.00000 0 -21374775.547 -12016995.295 -6926978.762 10 0 59173 44100.00000 0 -20428501.962 -11568796.413 -9902723.520 10 0 59173 45000.00000 0 -19110737.713 -11093396.476 -12685457.936 10 0 59173 45900.00000 0 -17441553.585 -10645540.736 -15220946.746 10 0 59173 46800.00000 0 -15453333.394 -10276122.541 -17459794.767 10 0 59173 47700.00000 0 -13189613.095 -10029864.510 -19358417.393 10 0 59173 48600.00000 0 -10703461.778 -9943277.146 -20879893.879 10 0 59173 49500.00000 0 -8055472.658 -10042982.095 -21994686.566 10 0 59173 50400.00000 0 -5311448.644 -10344471.427 -22681212.080 10 0 59173 51300.00000 0 -2539879.647 -10851355.360 -22926253.936 10 0 59173 52200.00000 0 190682.876 -11555129.901 -22725209.259 10 0 59173 53100.00000 0 2814244.565 -12435473.582 -22082165.750 10 0 59173 54000.00000 0 5269871.344 -13461060.049 -21009808.437 10 0 59173 54900.00000 0 7503973.773 -14590851.457 -19529159.022 10 0 59173 55800.00000 0 9472278.655 -15775817.466 -17669153.848 10 0 59173 56700.00000 0 11141407.520 -16961006.822 -15466069.539 10 0 59173 57600.00000 0 12489998.287 -18087883.973 -12962808.105 10 0 59173 58500.00000 0 13509325.555 -19096832.150 -10208056.034 10 0 59173 59400.00000 0 14203396.098 -19929717.666 -7255334.046 10 0 59173 60300.00000 0 14588517.993 -20532407.825 -4161956.215 10 0 59173 61200.00000 0 14692363.643 -20857136.959 -987918.817 10 0 59173 62100.00000 0 14552567.980 -20864621.664 2205259.571 10 0 59173 63000.00000 0 14214922.254 -20525836.957 5355724.496 10 0 59173 63900.00000 0 13731240.369 -19823379.267 8402475.821 10 0 59173 64800.00000 0 13156988.097 -18752359.482 11286539.271 10 0 59173 65700.00000 0 12548774.983 -17320788.749 13952097.368 10 0 59173 66600.00000 0 11961814.177 -15549440.721 16347558.698 10 0 59173 67500.00000 0 11447456.423 -13471195.442 18426545.874 10 0 59173 68400.00000 0 11050901.202 -11129891.265 20148784.157 10 0 59173 69300.00000 0 10809180.505 -8578731.359 21480874.467 10 0 59173 70200.00000 0 10749499.398 -5878309.381 22396936.774 10 0 59173 71100.00000 0 10888002.888 -3094334.442 22879111.994 10 0 59173 72000.00000 0 11229021.044 -295147.882 22917912.923 10 0 59173 72900.00000 0 11764824.749 2450867.142 22512417.302 10 0 59173 73800.00000 0 12475903.492 5077877.612 21670298.687 10 0 59173 74700.00000 0 13331755.032 7525088.001 20407693.538 10 0 59173 75600.00000 0 14292155.514 9739020.884 18748905.786 10 0 59173 76500.00000 0 15308858.471 11675496.698 16725953.041 10 0 59173 77400.00000 0 16327652.830 13301230.309 14377961.607 10 0 59173 78300.00000 0 17290694.633 14594977.830 11750420.534 10 0 59173 79200.00000 0 18139015.010 15548185.312 8894307.821 10 0 59173 80100.00000 0 18815098.776 16165111.626 5865104.904 10 0 59173 81000.00000 0 19265424.240 16462419.970 2721718.067 10 0 59173 81900.00000 0 19442855.871 16468254.977 -474672.194 10 0 59173 82800.00000 0 19308787.304 16220844.469 -3661810.719 10 0 59173 83700.00000 0 18834942.108 15766685.344 -6777591.862 10 0 59173 84600.00000 0 18004754.228 15158391.137 -9761283.124 10 0 59173 85500.00000 0 16814267.914 14452293.522 -12554722.757 99